Regional Weather Roundup
Issued by NWS

Home | Current Version | Previous Version | Text Only | Print | Product List | Glossary Off
Versions: 1 2 3 4 5 6 7 8 9 10 11 12 13 14 15 16 17 18 19 20 21 22 23 24 25 26 27 28 29 30 31 32 33 34 35 36 37 38 39 40 41 42 43 44 45 46 47 48 49 50

000
ASUS44 KMEG 040200
RWRTN
TENNESSEE HOURLY STATE WEATHER ROUNDUP
NATIONAL WEATHER SERVICE MEMPHIS TN
900 PM CDT SUN MAY 03 2015

TNZ002-004-019-021-049-052-054-088>092-040300-
WEST TENNESSEE

CITY           SKY/WX    TMP DP  RH WIND       PRES   REMARKS
MEMPHIS INTL   PTCLDY    75  50  41 SE5       30.06R
NWS MEMPHIS      N/A    N/A N/A N/A MISG        N/A
JACKSON        PTCLDY    61  53  75 S3        30.08R
DYERSBURG      CLEAR     70  43  37 SE6       30.07R
PARIS          CLEAR     61  52  72 S3        30.09R
LEXINGTON      CLEAR     61  54  77 CALM      30.09S
$$

TNZ008-025-027-028-033-062-065-066-040300-
NORTH MIDDLE TENNESSEE

CITY           SKY/WX    TMP DP  RH WIND       PRES   REMARKS
NASHVILLE      PTCLDY    67  51  56 S5        30.11R
CLARKSVILLE    CLEAR     68  49  50 S3        30.09R
COOKEVILLE     CLEAR     55  52  88 CALM      30.14R
CROSSVILLE     CLEAR     64  47  53 CALM      30.18R
$$

TNZ061-075-076-078-094-096-097-040300-
SOUTH MIDDLE TENNESSEE

CITY           SKY/WX    TMP DP  RH WIND       PRES   REMARKS
FAYETTEVILLE     N/A     64  48  55 S3        30.15R
TULLAHOMA      CLEAR     61  50  67 CALM      30.16R
WINCHESTER     CLEAR     61  52  72 CALM      30.16R
MCMINNVILLE    CLEAR     59  52  77 CALM      30.15R
COLUMBIA       CLEAR     64  54  68 S3        30.11R
SHELBYVILLE    CLEAR     61  55  82 CALM      30.15R
$$

TNZ017-018-042-046-047-040300-
NORTHEAST TENNESSEE

CITY           SKY/WX    TMP DP  RH WIND       PRES   REMARKS
TRI CITIES     PTCLDY    59  46  62 CALM      30.17R
ELIZABETHTON   CLEAR     55  46  71 CALM      30.18R
$$

TNZ012-013-036-069-073-074-040300-
CENTRAL EAST TENNESSEE

CITY           SKY/WX    TMP DP  RH WIND       PRES   REMARKS
KNOXVILLE      PTCLDY    67  50  54 S3        30.15R
OAK RIDGE      CLEAR     65  51  60 CALM      30.16R
GATLINBURG     CLEAR     63  48  59 CALM      30.16R
$$

TNZ083-085-099-040300-
SOUTHEAST TENNESSEE

CITY           SKY/WX    TMP DP  RH WIND       PRES   REMARKS
CHATTANOOGA    MOCLDY    65  49  56 CALM      30.15R
$$

SKY/WX REPORTED AS FAIR MEANS FEW OR NO CLOUDS BELOW
12 THOUSAND FEET.




USA.gov is the U.S. government's official web portal to all federal, state and local government web resources and services.